Voltar ao catálogo

DJIBOUTI-1B

AtivoCiênciaVLEO
NORAD 62402·PAYLOAD·🇩🇯 DJ

Lançado Dec 21, 2024 de Vandenberg Space Force Base

Loading…

Próximas Passagens (próximas 24 horas)

TLE

AtualizadoSource: Space-Track

Época: Sep 14, 2026, 13:46 UTC

1 62402U 24247AB  26257.57422850  .00084194  00000-0  75670-3 0  9992
2 62402  44.9656  90.1972 0010317 239.4053 120.5827 15.67266139 97508

Acompanhe DJIBOUTI-1B em tempo real com AllMySat

Download on the App Store